Terminal Aerodrome Forecast
Issued by NWS Charleston, WV

Current Version | Previous Version | Graphics & Text | Print | Product List | Glossary Off
Versions: 1 2 3 4 5 6 7 8 9 10 11 12 13 14 15 16 17 18 19 20 21 22 23 24 25 26 27 28 29 30 31

000
FTUS41 KRLX 271000 AAA
TAFCRW
TAF AMD
KCRW 271004Z 2710/2806 VRB03KT P6SM SKC
     FM271500 34007KT P6SM SCT060
     FM271800 32011G19KT P6SM BKN050
     FM280000 33007KT P6SM SCT050=

USA.gov is the U.S. government's official web portal to all federal, state and local government web resources and services.